VOZ1495 YBBN-YBHM

Flight info

Callsign VOZ1495
Flight time 1h 27m
Altitude 34000
Route BN Q67 OVRON
Aircraft B738/M-SDE2E3FGHIRWXY/LB1

Departure

Time 2026-05-03 21:37
Airport Brisbane International Airport (YBBN)

Arrival

Time 2026-05-03 23:04
Airport Hamilton Island Airport (YBHM)
Time Latitude Longitude Altitude Speed Heading
2026-05-03 21:12 -27.38615 153.12079 17 ft 0 kts 305°
2026-05-03 21:29 -27.38615 153.12083 17 ft 3 kts 329°
2026-05-03 21:29 -27.38621 153.12092 17 ft 3 kts 299°
2026-05-03 21:29 -27.38631 153.12110 18 ft 3 kts 328°
2026-05-03 21:30 -27.38632 153.12112 18 ft 3 kts 14°
2026-05-03 21:30 -27.38652 153.12106 18 ft 3 kts 18°
2026-05-03 21:30 -27.38671 153.12097 19 ft 3 kts 31°
2026-05-03 21:30 -27.38684 153.12085 17 ft 3 kts 72°
2026-05-03 21:31 -27.38687 153.12081 17 ft 0 kts 116°
2026-05-03 21:32 -27.38693 153.12093 17 ft 9 kts 120°
2026-05-03 21:32 -27.38743 153.12172 17 ft 13 kts 133°
2026-05-03 21:32 -27.38795 153.12250 17 ft 12 kts 110°
2026-05-03 21:33 -27.38756 153.12327 18 ft 16 kts 29°
2026-05-03 21:33 -27.38619 153.12405 17 ft 27 kts 26°
2026-05-03 21:33 -27.38453 153.12500 17 ft 26 kts 27°
2026-05-03 21:33 -27.38296 153.12590 18 ft 25 kts 27°
2026-05-03 21:34 -27.38134 153.12683 17 ft 28 kts 27°
2026-05-03 21:34 -27.37953 153.12786 17 ft 30 kts 27°
2026-05-03 21:34 -27.37770 153.12890 19 ft 29 kts 27°
2026-05-03 21:34 -27.37590 153.12994 17 ft 28 kts 27°
2026-05-03 21:35 -27.37418 153.13093 18 ft 27 kts 27°
2026-05-03 21:35 -27.37290 153.13166 17 ft 10 kts 29°
2026-05-03 21:35 -27.37277 153.13234 17 ft 12 kts 111°
2026-05-03 21:35 -27.37322 153.13337 18 ft 15 kts 116°
2026-05-03 21:36 -27.37388 153.13419 22 ft 12 kts 153°
2026-05-03 21:36 -27.37450 153.13432 21 ft 9 kts 186°
2026-05-03 21:36 -27.37551 153.13382 21 ft 36 kts 207°
2026-05-03 21:36 -27.37979 153.13137 21 ft 101 kts 207°
2026-05-03 21:37 -27.38780 153.12677 37 ft 154 kts 207°
2026-05-03 21:37 -27.39782 153.12105 652 ft 162 kts 206°
2026-05-03 21:37 -27.40814 153.11518 1408 ft 168 kts 205°
2026-05-03 21:37 -27.41889 153.10906 2076 ft 182 kts 204°
2026-05-03 21:38 -27.43121 153.10198 2391 ft 213 kts 205°
2026-05-03 21:38 -27.44514 153.09393 2669 ft 237 kts 205°
2026-05-03 21:38 -27.46037 153.08511 3118 ft 253 kts 205°
2026-05-03 21:38 -27.47601 153.07524 3784 ft 264 kts 217°
2026-05-03 21:39 -27.48724 153.05885 4676 ft 269 kts 248°
2026-05-03 21:39 -27.49050 153.03834 5497 ft 273 kts 272°
2026-05-03 21:39 -27.48882 153.01702 6376 ft 274 kts 278°
2026-05-03 21:39 -27.48617 152.99544 7237 ft 275 kts 279°
2026-05-03 21:40 -27.48367 152.97434 8111 ft 275 kts 278°
2026-05-03 21:40 -27.48128 152.95292 8987 ft 276 kts 277°
2026-05-03 21:40 -27.47697 152.93166 9658 ft 285 kts 298°
2026-05-03 21:40 -27.46351 152.91532 10330 ft 293 kts 328°
2026-05-03 21:41 -27.44361 152.90741 10537 ft 318 kts 353°
2026-05-03 21:41 -27.42066 152.90799 10734 ft 343 kts
2026-05-03 21:41 -27.39719 152.91558 11077 ft 358 kts 20°
2026-05-03 21:41 -27.37400 152.92656 11676 ft 364 kts 22°
2026-05-03 21:42 -27.35109 152.93832 12348 ft 367 kts 23°
2026-05-03 21:42 -27.32773 152.95029 13010 ft 370 kts 22°
2026-05-03 21:42 -27.30400 152.96214 13634 ft 375 kts 21°
2026-05-03 21:42 -27.27996 152.97384 14210 ft 378 kts 20°
2026-05-03 21:43 -27.25562 152.98544 14774 ft 381 kts 20°
2026-05-03 21:43 -27.23109 152.99697 15355 ft 383 kts 20°
2026-05-03 21:43 -27.20637 153.00850 15907 ft 386 kts 20°
2026-05-03 21:43 -27.18140 153.02009 16455 ft 389 kts 20°
2026-05-03 21:44 -27.15624 153.03174 16996 ft 392 kts 20°
2026-05-03 21:44 -27.13086 153.04348 17542 ft 395 kts 19°
2026-05-03 21:44 -27.10569 153.05512 18078 ft 398 kts 19°
2026-05-03 21:44 -27.07998 153.06701 18572 ft 401 kts 19°
2026-05-03 21:45 -27.05409 153.07897 19008 ft 404 kts 19°
2026-05-03 21:45 -27.02800 153.09103 19457 ft 407 kts 19°
2026-05-03 21:45 -27.00173 153.10316 19899 ft 409 kts 19°
2026-05-03 21:45 -26.97517 153.11542 20337 ft 412 kts 18°
2026-05-03 21:46 -26.94856 153.12769 20778 ft 415 kts 18°
2026-05-03 21:46 -26.92172 153.14007 21202 ft 418 kts 18°
2026-05-03 21:46 -26.90381 153.14832 21475 ft 420 kts 18°
2026-05-03 21:46 -26.87670 153.16081 21893 ft 423 kts 18°
2026-05-03 21:47 -26.84943 153.17338 22302 ft 426 kts 17°
2026-05-03 21:47 -26.81297 153.19016 22831 ft 429 kts 17°
2026-05-03 21:47 -26.78518 153.20295 23213 ft 432 kts 17°
2026-05-03 21:47 -26.76667 153.21146 23479 ft 434 kts 17°
2026-05-03 21:48 -26.73857 153.22438 23829 ft 437 kts 17°
2026-05-03 21:48 -26.70984 153.23482 24111 ft 432 kts
2026-05-03 21:48 -26.68025 153.23761 24452 ft 424 kts 353°
2026-05-03 21:48 -26.65124 153.23361 24807 ft 417 kts 340°
2026-05-03 21:49 -26.62353 153.22429 25152 ft 415 kts 337°
2026-05-03 21:49 -26.59585 153.21429 25467 ft 417 kts 337°
2026-05-03 21:49 -26.56850 153.20438 25777 ft 419 kts 337°
2026-05-03 21:49 -26.54064 153.19443 26093 ft 421 kts 337°
2026-05-03 21:50 -26.51266 153.18459 26416 ft 422 kts 338°
2026-05-03 21:50 -26.48459 153.17483 26735 ft 423 kts 338°
2026-05-03 21:50 -26.45637 153.16508 27038 ft 425 kts 338°
2026-05-03 21:50 -26.42800 153.15530 27332 ft 427 kts 338°
2026-05-03 21:51 -26.39957 153.14551 27619 ft 428 kts 338°
2026-05-03 21:51 -26.37092 153.13565 27907 ft 430 kts 338°
2026-05-03 21:51 -26.34265 153.12591 28188 ft 431 kts 338°
2026-05-03 21:51 -26.31393 153.11602 28461 ft 432 kts 338°
2026-05-03 21:52 -26.28589 153.10437 28753 ft 428 kts 330°
2026-05-03 21:52 -26.25973 153.08885 29160 ft 422 kts 323°
2026-05-03 21:52 -26.23608 153.06988 29614 ft 416 kts 319°
2026-05-03 21:52 -26.21293 153.05052 30064 ft 414 kts 319°
2026-05-03 21:53 -26.18987 153.03131 30419 ft 413 kts 319°
2026-05-03 21:53 -26.16678 153.01223 30703 ft 413 kts 319°
2026-05-03 21:53 -26.14387 152.99346 30998 ft 413 kts 319°
2026-05-03 21:53 -26.12066 152.97451 31308 ft 412 kts 319°
2026-05-03 21:54 -26.09750 152.95567 31621 ft 412 kts 319°
2026-05-03 21:54 -26.07425 152.93693 31935 ft 412 kts 319°
2026-05-03 21:54 -26.05101 152.91830 32259 ft 411 kts 319°
2026-05-03 21:54 -26.02776 152.89969 32546 ft 411 kts 319°
2026-05-03 21:55 -26.00457 152.88112 32816 ft 411 kts 318°
2026-05-03 21:55 -25.98164 152.86276 33142 ft 410 kts 318°
2026-05-03 21:55 -25.95848 152.84421 33438 ft 410 kts 318°
2026-05-03 21:55 -25.93524 152.82559 33693 ft 411 kts 317°
2026-05-03 21:56 -25.91209 152.80705 33979 ft 410 kts 317°
2026-05-03 21:56 -25.88892 152.78849 34136 ft 412 kts 317°
2026-05-03 21:56 -25.84239 152.75123 34127 ft 414 kts 317°
2026-05-03 21:57 -25.79589 152.71412 34131 ft 408 kts 317°
2026-05-03 21:57 -25.74982 152.67735 34139 ft 407 kts 317°
2026-05-03 21:58 -25.70387 152.64068 34140 ft 407 kts 317°
2026-05-03 21:58 -25.65784 152.60399 34141 ft 407 kts 318°
2026-05-03 21:59 -25.61206 152.56752 34140 ft 408 kts 318°
2026-05-03 21:59 -25.56582 152.53074 34137 ft 408 kts 318°
2026-05-03 22:00 -25.51960 152.49402 34144 ft 409 kts 318°
2026-05-03 22:00 -25.47360 152.45749 34149 ft 409 kts 318°
2026-05-03 22:01 -25.42722 152.42071 34143 ft 410 kts 318°
2026-05-03 22:01 -25.38081 152.38394 34133 ft 411 kts 318°
2026-05-03 22:02 -25.33426 152.34709 34144 ft 411 kts 318°
2026-05-03 22:02 -25.28789 152.31042 34144 ft 411 kts 319°
2026-05-03 22:03 -25.24127 152.27358 34138 ft 412 kts 319°
2026-05-03 22:03 -25.19461 152.23675 34136 ft 412 kts 319°
2026-05-03 22:04 -25.14809 152.20007 34141 ft 410 kts 319°
2026-05-03 22:04 -25.10167 152.16349 34141 ft 409 kts 319°
2026-05-03 22:05 -25.05534 152.12702 34138 ft 408 kts 319°
2026-05-03 22:05 -25.00934 152.09089 34140 ft 408 kts 319°
2026-05-03 22:06 -24.96302 152.05462 34139 ft 408 kts 319°
2026-05-03 22:06 -24.91669 152.01838 34141 ft 409 kts 319°
2026-05-03 22:07 -24.87028 151.98208 34145 ft 410 kts 319°
2026-05-03 22:07 -24.82362 151.94563 34141 ft 411 kts 319°
2026-05-03 22:08 -24.77724 151.90942 34147 ft 412 kts 319°
2026-05-03 22:08 -24.73038 151.87287 34145 ft 413 kts 319°
2026-05-03 22:09 -24.68331 151.83619 34140 ft 415 kts 319°
2026-05-03 22:10 -24.61243 151.78104 34138 ft 416 kts 319°
2026-05-03 22:10 -24.56533 151.74444 34142 ft 416 kts 319°
2026-05-03 22:11 -24.51800 151.70767 34137 ft 416 kts 319°
2026-05-03 22:11 -24.47061 151.67091 34140 ft 417 kts 319°
2026-05-03 22:12 -24.42324 151.63420 34133 ft 417 kts 319°
2026-05-03 22:12 -24.37616 151.59774 34133 ft 417 kts 319°
2026-05-03 22:13 -24.32883 151.56112 34136 ft 417 kts 319°
2026-05-03 22:13 -24.28140 151.52446 34126 ft 417 kts 319°
2026-05-03 22:14 -24.23398 151.48784 34132 ft 416 kts 319°
2026-05-03 22:14 -24.18656 151.45125 34132 ft 417 kts 319°
2026-05-03 22:15 -24.13930 151.41482 34117 ft 418 kts 319°
2026-05-03 22:15 -24.09175 151.37820 34121 ft 417 kts 319°
2026-05-03 22:16 -24.04428 151.34167 34108 ft 417 kts 319°
2026-05-03 22:16 -23.99669 151.30509 34106 ft 417 kts 319°
2026-05-03 22:17 -23.94910 151.26853 34101 ft 418 kts 320°
2026-05-03 22:17 -23.90175 151.23219 34108 ft 418 kts 320°
2026-05-03 22:18 -23.85367 151.19616 34103 ft 421 kts 322°
2026-05-03 22:18 -23.80321 151.16337 34103 ft 422 kts 324°
2026-05-03 22:19 -23.75258 151.13137 34105 ft 423 kts 324°
2026-05-03 22:19 -23.70168 151.09903 34110 ft 423 kts 324°
2026-05-03 22:20 -23.65087 151.06653 34116 ft 423 kts 324°
2026-05-03 22:20 -23.60002 151.03396 34119 ft 424 kts 324°
2026-05-03 22:21 -23.54919 151.00141 34121 ft 424 kts 324°
2026-05-03 22:21 -23.49818 150.96878 34121 ft 424 kts 324°
2026-05-03 22:22 -23.44752 150.93641 34117 ft 424 kts 324°
2026-05-03 22:22 -23.39658 150.90388 34121 ft 424 kts 324°
2026-05-03 22:23 -23.34558 150.87135 34118 ft 425 kts 324°
2026-05-03 22:23 -23.29449 150.83879 34119 ft 425 kts 324°
2026-05-03 22:24 -23.24373 150.80647 34119 ft 425 kts 324°
2026-05-03 22:24 -23.19248 150.77387 34117 ft 426 kts 324°
2026-05-03 22:25 -23.14130 150.74134 34118 ft 426 kts 324°
2026-05-03 22:25 -23.09032 150.70896 34118 ft 426 kts 324°
2026-05-03 22:26 -23.03897 150.67638 34117 ft 427 kts 324°
2026-05-03 22:26 -22.98762 150.64383 34117 ft 427 kts 324°
2026-05-03 22:27 -22.93627 150.61131 34112 ft 428 kts 324°
2026-05-03 22:27 -22.88517 150.57898 34123 ft 427 kts 324°
2026-05-03 22:28 -22.83372 150.54645 34117 ft 428 kts 324°
2026-05-03 22:28 -22.78238 150.51402 34109 ft 428 kts 324°
2026-05-03 22:29 -22.73085 150.48151 34109 ft 428 kts 324°
2026-05-03 22:29 -22.67942 150.44908 34114 ft 428 kts 324°
2026-05-03 22:30 -22.62795 150.41665 34110 ft 427 kts 324°
2026-05-03 22:30 -22.57656 150.38431 34113 ft 427 kts 324°
2026-05-03 22:31 -22.52541 150.35214 34111 ft 427 kts 324°
2026-05-03 22:31 -22.47400 150.31983 34113 ft 427 kts 324°
2026-05-03 22:32 -22.42257 150.28754 34109 ft 427 kts 324°
2026-05-03 22:32 -22.37139 150.25543 34109 ft 427 kts 324°
2026-05-03 22:33 -22.31994 150.22317 34110 ft 428 kts 324°
2026-05-03 22:33 -22.26847 150.19094 34106 ft 428 kts 324°
2026-05-03 22:34 -22.21724 150.15794 34107 ft 428 kts 323°
2026-05-03 22:34 -22.17494 150.13015 34105 ft 428 kts 323°
2026-05-03 22:35 -22.11568 150.09126 34103 ft 429 kts 323°
2026-05-03 22:35 -22.07314 150.06348 34085 ft 421 kts 323°
2026-05-03 22:36 -22.02379 150.03135 34096 ft 415 kts 323°
2026-05-03 22:36 -21.97431 149.99909 33795 ft 416 kts 323°
2026-05-03 22:36 -21.94970 149.98307 33465 ft 410 kts 323°
2026-05-03 22:37 -21.92536 149.96725 33063 ft 406 kts 323°
2026-05-03 22:37 -21.90126 149.95159 32657 ft 402 kts 324°
2026-05-03 22:37 -21.87738 149.93606 32257 ft 399 kts 324°
2026-05-03 22:37 -21.85368 149.92066 31845 ft 397 kts 324°
2026-05-03 22:38 -21.83011 149.90535 31450 ft 394 kts 324°
2026-05-03 22:38 -21.80671 149.89015 31061 ft 392 kts 324°
2026-05-03 22:38 -21.78364 149.87517 30662 ft 390 kts 324°
2026-05-03 22:38 -21.76045 149.86011 30261 ft 388 kts 325°
2026-05-03 22:39 -21.73732 149.84511 29803 ft 387 kts 325°
2026-05-03 22:39 -21.71433 149.83020 29377 ft 384 kts 325°
2026-05-03 22:39 -21.69151 149.81542 28950 ft 381 kts 325°
2026-05-03 22:39 -21.66883 149.80073 28536 ft 378 kts 325°
2026-05-03 22:40 -21.64635 149.78617 28126 ft 375 kts 326°
2026-05-03 22:40 -21.62400 149.77170 27717 ft 373 kts 326°
2026-05-03 22:40 -21.60214 149.75755 27331 ft 370 kts 326°
2026-05-03 22:40 -21.58016 149.74333 26933 ft 368 kts 326°
2026-05-03 22:41 -21.55828 149.72918 26540 ft 366 kts 326°
2026-05-03 22:41 -21.53653 149.71512 26145 ft 364 kts 326°
2026-05-03 22:41 -21.51486 149.70111 25742 ft 363 kts 326°
2026-05-03 22:41 -21.49323 149.68714 25342 ft 362 kts 326°
2026-05-03 22:42 -21.47169 149.67323 24941 ft 361 kts 326°
2026-05-03 22:42 -21.45021 149.65936 24552 ft 360 kts 327°
2026-05-03 22:42 -21.42877 149.64552 24160 ft 359 kts 327°
2026-05-03 22:42 -21.40735 149.63170 23760 ft 358 kts 327°
2026-05-03 22:43 -21.38599 149.61792 23318 ft 358 kts 327°
2026-05-03 22:43 -21.36474 149.60423 22914 ft 355 kts 327°
2026-05-03 22:43 -21.34357 149.59059 22510 ft 353 kts 327°
2026-05-03 22:43 -21.32251 149.57702 22121 ft 351 kts 327°
2026-05-03 22:44 -21.30185 149.56372 21744 ft 349 kts 327°
2026-05-03 22:44 -21.28108 149.55035 21365 ft 347 kts 327°
2026-05-03 22:44 -21.26037 149.53702 20991 ft 345 kts 327°
2026-05-03 22:44 -21.23982 149.52380 20618 ft 343 kts 327°
2026-05-03 22:45 -21.21962 149.51081 20251 ft 342 kts 327°
2026-05-03 22:45 -21.19918 149.49767 19865 ft 341 kts 327°
2026-05-03 22:45 -21.17879 149.48456 19490 ft 340 kts 327°
2026-05-03 22:45 -21.15852 149.47153 19121 ft 339 kts 327°
2026-05-03 22:46 -21.13829 149.45854 18746 ft 339 kts 327°
2026-05-03 22:46 -21.11807 149.44556 18370 ft 338 kts 327°
2026-05-03 22:46 -21.09791 149.43262 17961 ft 337 kts 327°
2026-05-03 22:46 -21.07787 149.41976 17581 ft 335 kts 327°
2026-05-03 22:47 -21.05793 149.40696 17215 ft 333 kts 327°
2026-05-03 22:47 -21.03811 149.39425 16851 ft 331 kts 327°
2026-05-03 22:47 -21.01870 149.38181 16494 ft 329 kts 328°
2026-05-03 22:47 -20.99911 149.36926 16144 ft 327 kts 328°
2026-05-03 22:48 -20.97961 149.35677 15786 ft 325 kts 328°
2026-05-03 22:48 -20.96022 149.34434 15417 ft 324 kts 328°
2026-05-03 22:48 -20.94083 149.33192 15059 ft 323 kts 328°
2026-05-03 22:48 -20.92154 149.31957 14697 ft 323 kts 328°
2026-05-03 22:49 -20.90228 149.30724 14343 ft 322 kts 329°
2026-05-03 22:49 -20.88299 149.29490 13985 ft 322 kts 329°
2026-05-03 22:49 -20.86402 149.28277 13607 ft 321 kts 329°
2026-05-03 22:49 -20.84483 149.27050 13245 ft 320 kts 329°
2026-05-03 22:50 -20.82572 149.25829 12891 ft 318 kts 329°
2026-05-03 22:50 -20.80673 149.24616 12550 ft 316 kts 329°
2026-05-03 22:50 -20.78786 149.23410 12199 ft 315 kts 329°
2026-05-03 22:50 -20.76910 149.22213 11859 ft 313 kts 329°
2026-05-03 22:51 -20.75044 149.21021 11518 ft 312 kts 329°
2026-05-03 22:51 -20.73208 149.19850 11186 ft 310 kts 329°
2026-05-03 22:51 -20.71354 149.18667 10870 ft 309 kts 329°
2026-05-03 22:51 -20.69505 149.17488 10523 ft 308 kts 329°
2026-05-03 22:52 -20.67669 149.16317 10256 ft 305 kts 330°
2026-05-03 22:52 -20.65863 149.15165 10001 ft 301 kts 329°
2026-05-03 22:52 -20.64061 149.14016 9643 ft 301 kts 330°
2026-05-03 22:52 -20.62271 149.12876 9317 ft 299 kts 330°
2026-05-03 22:53 -20.60489 149.11741 8996 ft 297 kts 330°
2026-05-03 22:53 -20.58745 149.10629 8678 ft 295 kts 330°
2026-05-03 22:53 -20.56985 149.09509 8374 ft 293 kts 331°
2026-05-03 22:53 -20.55236 149.08396 8085 ft 292 kts 331°
2026-05-03 22:54 -20.53495 149.07288 7785 ft 291 kts 331°
2026-05-03 22:54 -20.51759 149.06184 7477 ft 290 kts 331°
2026-05-03 22:54 -20.50025 149.05081 7180 ft 290 kts 331°
2026-05-03 22:54 -20.48287 149.03977 6879 ft 289 kts 331°
2026-05-03 22:55 -20.46564 149.02882 6584 ft 288 kts 331°
2026-05-03 22:55 -20.44874 149.01808 6304 ft 287 kts 331°
2026-05-03 22:55 -20.43168 149.00723 6110 ft 280 kts 331°
2026-05-03 22:55 -20.41532 148.99682 5995 ft 266 kts 331°
2026-05-03 22:56 -20.39977 148.98694 5842 ft 254 kts 331°
2026-05-03 22:56 -20.38498 148.97754 5721 ft 241 kts 332°
2026-05-03 22:56 -20.37107 148.96872 5601 ft 229 kts 331°
2026-05-03 22:56 -20.35753 148.96035 5518 ft 223 kts 339°
2026-05-03 22:57 -20.34272 148.95805 5391 ft 214 kts 12°
2026-05-03 22:57 -20.32816 148.96111 5205 ft 214 kts 18°
2026-05-03 22:57 -20.31373 148.96481 4979 ft 210 kts 18°
2026-05-03 22:57 -20.29971 148.96838 4750 ft 203 kts 18°
2026-05-03 22:58 -20.28626 148.97175 4539 ft 196 kts 19°
2026-05-03 22:58 -20.27321 148.97501 4319 ft 188 kts 17°
2026-05-03 22:58 -20.26036 148.97691 4128 ft 188 kts
2026-05-03 22:58 -20.24754 148.97381 3968 ft 194 kts 339°
2026-05-03 22:59 -20.23640 148.96616 3758 ft 189 kts 319°
2026-05-03 22:59 -20.22827 148.95534 3595 ft 188 kts 301°
2026-05-03 22:59 -20.22301 148.94228 3548 ft 196 kts 284°
2026-05-03 22:59 -20.22154 148.92801 3508 ft 193 kts 263°
2026-05-03 23:00 -20.22453 148.91448 3465 ft 185 kts 242°
2026-05-03 23:00 -20.23127 148.90306 3298 ft 180 kts 223°
2026-05-03 23:00 -20.24089 148.89421 2686 ft 187 kts 206°
2026-05-03 23:00 -20.25275 148.88869 2151 ft 180 kts 187°
2026-05-03 23:01 -20.26435 148.88724 1956 ft 158 kts 171°
2026-05-03 23:01 -20.27438 148.88922 1827 ft 138 kts 156°
2026-05-03 23:01 -20.28290 148.89357 1658 ft 135 kts 147°
2026-05-03 23:01 -20.29069 148.89862 1481 ft 131 kts 143°
2026-05-03 23:02 -20.29830 148.90427 1331 ft 136 kts 140°
2026-05-03 23:02 -20.30584 148.91025 1174 ft 134 kts 141°
2026-05-03 23:02 -20.31331 148.91628 947 ft 134 kts 142°
2026-05-03 23:02 -20.32072 148.92225 791 ft 132 kts 142°
2026-05-03 23:03 -20.32803 148.92812 686 ft 132 kts 142°
2026-05-03 23:03 -20.33539 148.93409 471 ft 132 kts 143°
2026-05-03 23:03 -20.34274 148.93990 271 ft 130 kts 143°
2026-05-03 23:03 -20.34984 148.94555 80 ft 126 kts 143°
2026-05-03 23:04 -20.35621 148.95063 24 ft 100 kts 142°
2026-05-03 23:04 -20.36004 148.95370 20 ft 40 kts 143°
2026-05-03 23:04 -20.36133 148.95473 23 ft 22 kts 143°
2026-05-03 23:04 -20.36267 148.95580 20 ft 23 kts 142°
2026-05-03 23:05 -20.36359 148.95635 22 ft 11 kts 182°
2026-05-03 23:05 -20.36411 148.95662 21 ft 7 kts 89°
2026-05-03 23:05 -20.36369 148.95666 22 ft 12 kts 322°
2026-05-03 23:05 -20.36253 148.95571 20 ft 25 kts 323°
2026-05-03 23:06 -20.36124 148.95469 20 ft 21 kts 323°
2026-05-03 23:06 -20.36008 148.95374 20 ft 23 kts 323°
2026-05-03 23:06 -20.35870 148.95264 21 ft 30 kts 322°
2026-05-03 23:06 -20.35660 148.95096 24 ft 42 kts 323°
2026-05-03 23:07 -20.35485 148.94957 25 ft 20 kts 323°
2026-05-03 23:07 -20.35408 148.94945 20 ft 9 kts 34°
2026-05-03 23:07 -20.35368 148.94991 19 ft 8 kts 50°
2026-05-03 23:07 -20.35325 148.94995 19 ft 6 kts 336°
2026-05-03 23:08 -20.35309 148.94985 19 ft 2 kts 328°
2026-05-03 23:08 -20.35277 148.94989 19 ft 3 kts 40°
2026-05-03 23:08 -20.35269 148.94994 19 ft 2 kts 25°
2026-05-03 23:08 -20.35261 148.94994 19 ft 2 kts 359°
2026-05-03 23:09 -20.35251 148.94989 19 ft 0 kts 325°
2026-05-03 23:09 -20.35250 148.94988 19 ft 0 kts 322°
2026-05-03 23:11 -20.35257 148.94993 19 ft 0 kts 143°